• In Hungary
  • List of Countries
  • For 7 days
  • Water Temperature
  • Satellite Maps
  • Weather Map
  • News
  • Weather Widgets
  • user-avatar
    Login

    Hourly Weather Nizhnedonskoy

    Today, 24 May, Thursday

    Time Temperature Precipitation Wind Pressure Humidity
    00:00 +22°C° 0 mm 1 mps 759 mmHg 77%
    01:00 +22°C° 0.1 mm 1 mps 759 mmHg 78%
    02:00 +22°C° 0.1 mm 1 mps 759 mmHg 79%
    03:00 +21°C° 0 mm 1 mps 758 mmHg 84%
    04:00 +21°C° 0.1 mm 1 mps 758 mmHg 85%
    05:00 +21°C° 0.1 mm 1 mps 758 mmHg 86%
    06:00 +22°C° 0.1 mm 1 mps 758 mmHg 88%
    07:00 +23°C° 0.1 mm 2 mps 758 mmHg 84%
    08:00 +24°C° 0.1 mm 2 mps 758 mmHg 80%
    09:00 +25°C° 0.1 mm 2 mps 758 mmHg 76%
    10:00 +26°C° 0 mm 2 mps 758 mmHg 70%
    11:00 +28°C° 0 mm 2 mps 758 mmHg 63%
    12:00 +29°C° 0 mm 2 mps 757 mmHg 57%
    13:00 +29°C° 0.1 mm 2 mps 757 mmHg 58%
    14:00 +29°C° 0.1 mm 2 mps 757 mmHg 58%
    15:00 +29°C° 0.1 mm 3 mps 757 mmHg 59%
    16:00 +28°C° 0.1 mm 3 mps 757 mmHg 64%
    17:00 +27°C° 0.1 mm 3 mps 756 mmHg 69%
    18:00 +26°C° 0.1 mm 4 mps 756 mmHg 74%
    19:00 +25°C° 0 mm 3 mps 756 mmHg 77%
    20:00 +24°C° 0 mm 3 mps 756 mmHg 80%
    21:00 +22°C° 0 mm 3 mps 756 mmHg 84%
    22:00 +21°C° 0.6 mm 3 mps 756 mmHg 86%
    23:00 +21°C° 0.6 mm 2 mps 756 mmHg 88%

    Tomorrow, 25 May, Friday

    Time Temperature Precipitation Wind Pressure Humidity
    00:00 +20°C° 0.6 mm 2 mps 756 mmHg 90%
    01:00 +20°C° 0.3 mm 2 mps 756 mmHg 91%
    02:00 +20°C° 0.3 mm 2 mps 756 mmHg 91%
    03:00 +19°C° 0.3 mm 2 mps 756 mmHg 92%
    04:00 +20°C° 0.2 mm 2 mps 756 mmHg 91%
    05:00 +20°C° 0.2 mm 2 mps 756 mmHg 91%
    06:00 +20°C° 0.2 mm 2 mps 756 mmHg 90%
    07:00 +21°C° 0.2 mm 2 mps 756 mmHg 85%
    08:00 +24°C° 0.2 mm 2 mps 756 mmHg 80%
    09:00 +25°C° 0.2 mm 2 mps 756 mmHg 76%
    10:00 +26°C° 1.5 mm 2 mps 756 mmHg 72%
    11:00 +27°C° 1.5 mm 3 mps 756 mmHg 68%
    12:00 +28°C° 1.5 mm 3 mps 756 mmHg 64%
    13:00 +28°C° 0.6 mm 3 mps 756 mmHg 62%
    14:00 +29°C° 0.6 mm 3 mps 755 mmHg 60%
    15:00 +29°C° 0.6 mm 2 mps 755 mmHg 58%
    16:00 +28°C° 0.8 mm 2 mps 755 mmHg 61%
    17:00 +28°C° 0.8 mm 2 mps 755 mmHg 65%
    18:00 +28°C° 0.8 mm 2 mps 755 mmHg 68%
    19:00 +26°C° 0.5 mm 3 mps 755 mmHg 73%
    20:00 +24°C° 0.5 mm 3 mps 756 mmHg 78%
    21:00 +22°C° 0.5 mm 3 mps 756 mmHg 83%
    22:00 +22°C° 0.2 mm 4 mps 757 mmHg 84%
    23:00 +21°C° 0.2 mm 4 mps 757 mmHg 85%

    Day after tomorrow, 26 May, Saturday

    Time Temperature Precipitation Wind Pressure Humidity
    00:00 +21°C° 0.2 mm 5 mps 757 mmHg 86%
    01:00 +20°C° 0.1 mm 6 mps 758 mmHg 87%
    02:00 +18°C° 0.1 mm 7 mps 758 mmHg 88%
    03:00 +18°C° 0.1 mm 8 mps 759 mmHg 89%
    04:00 +17°C° 0 mm 8 mps 759 mmHg 86%
    05:00 +15°C° 0 mm 8 mps 760 mmHg 83%
    06:00 +13°C° 0 mm 8 mps 761 mmHg 80%
    07:00 +15°C° 0 mm 9 mps 761 mmHg 76%
    08:00 +16°C° 0 mm 9 mps 762 mmHg 71%
    09:00 +16°C° 0 mm 9 mps 763 mmHg 66%
    10:00 +17°C° 0 mm 9 mps 763 mmHg 63%
    11:00 +18°C° 0 mm 9 mps 764 mmHg 60%
    12:00 +18°C° 0 mm 9 mps 764 mmHg 57%
    13:00 +19°C° 0 mm 9 mps 764 mmHg 55%
    14:00 +19°C° 0 mm 9 mps 764 mmHg 53%
    15:00 +21°C° 0 mm 10 mps 764 mmHg 50%
    16:00 +19°C° 0 mm 9 mps 765 mmHg 52%
    17:00 +20°C° 0 mm 8 mps 765 mmHg 53%
    18:00 +18°C° 0 mm 7 mps 765 mmHg 55%
    19:00 +17°C° 0 mm 7 mps 766 mmHg 54%
    20:00 +16°C° 0 mm 7 mps 766 mmHg 53%
    21:00 +15°C° 0 mm 7 mps 767 mmHg 52%
    22:00 +14°C° 0 mm 7 mps 767 mmHg 51%
    23:00 +14°C° 0 mm 7 mps 767 mmHg 51%

    27 May, Sunday

    Time Temperature Precipitation Wind Pressure Humidity
    00:00 +12°C° 0 mm 7 mps 767 mmHg 51%
    01:00 +12°C° 0 mm 7 mps 768 mmHg 52%
    02:00 +11°C° 0 mm 7 mps 768 mmHg 52%
    03:00 +11°C° 0 mm 7 mps 768 mmHg 53%
    04:00 +10°C° 0 mm 7 mps 768 mmHg 56%
    05:00 +10°C° 0 mm 7 mps 768 mmHg 58%
    06:00 +10°C° 0 mm 7 mps 768 mmHg 61%
    07:00 +11°C° 0 mm 7 mps 768 mmHg 59%
    08:00 +13°C° 0 mm 8 mps 768 mmHg 57%
    09:00 +16°C° 0 mm 8 mps 768 mmHg 55%
    10:00 +17°C° 0 mm 8 mps 768 mmHg 54%
    11:00 +18°C° 0 mm 8 mps 768 mmHg 52%
    12:00 +20°C° 0 mm 8 mps 767 mmHg 50%
    13:00 +21°C° 0 mm 8 mps 767 mmHg 49%
    14:00 +22°C° 0 mm 7 mps 766 mmHg 49%
    15:00 +22°C° 0 mm 7 mps 766 mmHg 49%
    16:00 +22°C° 0 mm 6 mps 766 mmHg 52%
    17:00 +22°C° 0 mm 6 mps 766 mmHg 55%
    18:00 +21°C° 0 mm 5 mps 765 mmHg 58%
    19:00 +20°C° 0 mm 5 mps 765 mmHg 59%
    20:00 +18°C° 0 mm 4 mps 765 mmHg 61%
    21:00 +17°C° 0 mm 4 mps 765 mmHg 62%
    22:00 +15°C° 0 mm 4 mps 765 mmHg 61%
    23:00 +14°C° 0 mm 4 mps 765 mmHg 61%

    28 May, Monday

    Time Temperature Precipitation Wind Pressure Humidity
    00:00 +14°C° 0 mm 4 mps 765 mmHg 60%
    01:00 +13°C° 0 mm 4 mps 765 mmHg 59%
    02:00 +12°C° 0 mm 4 mps 765 mmHg 58%
    03:00 +12°C° 0 mm 4 mps 765 mmHg 57%
    04:00 +12°C° 0 mm 4 mps 765 mmHg 57%
    05:00 +12°C° 0 mm 5 mps 765 mmHg 58%
    06:00 +12°C° 0 mm 5 mps 765 mmHg 58%
    07:00 +13°C° 0 mm 5 mps 765 mmHg 57%
    08:00 +15°C° 0 mm 6 mps 765 mmHg 55%
    09:00 +16°C° 0 mm 6 mps 765 mmHg 53%
    10:00 +19°C° 0.1 mm 6 mps 765 mmHg 51%
    11:00 +20°C° 0.1 mm 6 mps 764 mmHg 48%
    12:00 +21°C° 0.1 mm 6 mps 764 mmHg 46%
    13:00 +22°C° 0 mm 6 mps 764 mmHg 45%
    14:00 +22°C° 0 mm 6 mps 764 mmHg 44%
    15:00 +23°C° 0 mm 6 mps 764 mmHg 42%
    16:00 +23°C° 0 mm 6 mps 764 mmHg 45%
    17:00 +22°C° 0 mm 5 mps 764 mmHg 48%
    18:00 +22°C° 0 mm 4 mps 764 mmHg 50%
    19:00 +20°C° 0 mm 4 mps 764 mmHg 51%
    20:00 +19°C° 0 mm 4 mps 765 mmHg 51%
    21:00 +17°C° 0 mm 5 mps 765 mmHg 52%
    22:00 +16°C° 0 mm 5 mps 765 mmHg 53%
    23:00 +16°C° 0 mm 5 mps 765 mmHg 55%

    29 May, Tuesday

    Time Temperature Precipitation Wind Pressure Humidity
    00:00 +16°C° 0 mm 6 mps 765 mmHg 57%
    01:00 +15°C° 0 mm 6 mps 765 mmHg 60%
    02:00 +15°C° 0 mm 5 mps 765 mmHg 62%
    03:00 +14°C° 0 mm 5 mps 766 mmHg 65%
    04:00 +15°C° 0 mm 5 mps 766 mmHg 70%
    05:00 +15°C° 0 mm 6 mps 766 mmHg 74%
    06:00 +15°C° 0 mm 6 mps 767 mmHg 79%
    07:00 +16°C° 0 mm 6 mps 767 mmHg 74%
    08:00 +18°C° 0 mm 7 mps 767 mmHg 69%
    09:00 +21°C° 0 mm 7 mps 767 mmHg 64%
    10:00 +22°C° 0 mm 7 mps 767 mmHg 60%
    11:00 +22°C° 0 mm 7 mps 767 mmHg 56%
    12:00 +23°C° 0 mm 8 mps 767 mmHg 52%
    13:00 +23°C° 0 mm 8 mps 767 mmHg 50%
    14:00 +24°C° 0 mm 7 mps 767 mmHg 48%
    15:00 +24°C° 0 mm 7 mps 766 mmHg 46%
    16:00 +23°C° 0 mm 7 mps 766 mmHg 49%
    17:00 +23°C° 0 mm 6 mps 766 mmHg 51%
    18:00 +22°C° 0 mm 5 mps 766 mmHg 54%
    19:00 +20°C° 0 mm 5 mps 766 mmHg 54%
    20:00 +19°C° 0 mm 5 mps 766 mmHg 55%
    21:00 +17°C° 0 mm 4 mps 767 mmHg 56%
    22:00 +17°C° 0 mm 4 mps 767 mmHg 54%
    23:00 +15°C° 0 mm 4 mps 766 mmHg 53%
    Show more